This is the latest recevied weather packets stored in our database for station/object KD8BMB. If no packets are shown the sender has not sent any weather packets the latest 10 day(s).
| Time | Temp. | Humidity | Pressure | Rain* | Wind** | Luminosity | Snow |
|---|---|---|---|---|---|---|---|
| 1777510902 | 7.78° C | 81% | 1012.5 hPa | 0 mm | - | 0 W/m² | - |
| 1777510599 | 7.78° C | 82% | 1012.4 hPa | 0 mm | - | 0 W/m² | - |
| 1777510295 | 7.78° C | 80% | 1012.2 hPa | 0 mm | - | 0 W/m² | - |
| 1777509992 | 7.78° C | 80% | 1012.1 hPa | 0 mm | - | 0 W/m² | - |
| 1777509688 | 7.78° C | 81% | 1012.1 hPa | 0 mm | - | 0 W/m² | - |
| 1777509384 | 8.33° C | 79% | 1012.1 hPa | 0 mm | - | 0 W/m² | - |
| 1777509082 | 8.33° C | 79% | 1012.2 hPa | 0 mm | - | 0 W/m² | - |
| 1777508779 | 8.33° C | 79% | 1012 hPa | 0 mm | - | 0 W/m² | - |
| 1777508476 | 8.33° C | 80% | 1012 hPa | 0 mm | - | 0 W/m² | - |
| 1777508173 | 8.33° C | 79% | 1011.9 hPa | 0 mm | - | 2 W/m² | - |
| 1777507869 | 8.33° C | 79% | 1011.7 hPa | 0 mm | - | 2 W/m² | - |
| 1777507567 | 8.33° C | 78% | 1011.9 hPa | 0 mm | - | 3 W/m² | - |
| 1777507263 | 8.33° C | 79% | 1011.6 hPa | 0 mm | - | 5 W/m² | - |
| 1777506961 | 8.33° C | 78% | 1011.6 hPa | 0 mm | - | 7 W/m² | - |
| 1777506658 | 8.33° C | 78% | 1011.7 hPa | 0 mm | - | 9 W/m² | - |
| 1777506354 | 8.33° C | 78% | 1011.5 hPa | 0 mm | - | 8 W/m² | - |
| 1777506050 | 8.33° C | 78% | 1011.7 hPa | 0 mm | - | 10 W/m² | - |
| 1777505745 | 8.33° C | 79% | 1011.6 hPa | 0 mm | - | 12 W/m² | - |
| 1777505443 | 8.33° C | 80% | 1011.5 hPa | 0 mm | - | 12 W/m² | - |
| 1777505139 | 8.33° C | 80% | 1011.5 hPa | 0 mm | - | 13 W/m² | - |
| 1777504837 | 8.33° C | 80% | 1011.5 hPa | 0 mm | - | 17 W/m² | - |
| 1777504534 | 8.33° C | 80% | 1011.5 hPa | 0 mm | - | 19 W/m² | - |
| 1777504229 | 8.33° C | 79% | 1011.5 hPa | 0 mm | - | 26 W/m² | - |
| 1777503925 | 8.89° C | 79% | 1011.7 hPa | 0 mm | - | 37 W/m² | - |
| 1777503621 | 8.89° C | 80% | 1011.4 hPa | 0 mm | - | 58 W/m² | - |
* Rain latest hour (hover to see other rain measurements)
** Current wind speed in m/s (hover to see current wind gust speed)